Regional Weather Roundup
Issued by NWS

Home | Current Version | Previous Version | Graphics & Text | Print | Product List | Glossary On
Versions: 1 2 3 4 5 6 7 8 9 10 11 12 13 14 15 16 17 18 19 20 21 22 23 24 25 26 27 28 29 30 31 32 33 34 35 36 37 38 39 40 41 42 43 44 45 46 47 48 49 50
000
ASUS43 KMKX 110321
RWRWI

WISCONSIN REGIONAL WEATHER ROUNDUP
NATIONAL WEATHER SERVICE MILWAUKEE/SULLIVAN WI
1000 PM CDT THU JUL 10 2014

NOTE: "FAIR" INDICATES FEW OR NO CLOUDS BELOW 12,000 FEET WITH NO
SIGNIFICANT WEATHER AND/OR OBSTRUCTIONS TO VISIBILITY.

WIZ001-002-006>008-014>016-023>028-110400-
NORTHWEST WISCONSIN

CITY           SKY/WX    TMP DP  RH WIND       PRES   REMARKS
SUPERIOR ARPT  MOCLDY    53  50  89 NE5       30.00R
ASHLAND        MOCLDY    62  60  93 CALM      30.02R
HAYWARD        MOCLDY    71  62  73 S6        30.03R
SIREN          MOCLDY    72  64  76 S6        30.00R
RICE LAKE      MOCLDY    71  64  78 SE7       30.04R
LADYSMITH      MOCLDY    72  64  76 S6        30.07R
EAU CLAIRE     MOCLDY    73  65  75 S8        30.04R
MENOMONIE      MOCLDY    71  65  80 SE6       30.03R
NEW RICHMOND   MOCLDY    72  61  67 S7        30.02R
OSCEOLA        CLOUDY    73  62  68 S8        30.02R
$$

WIZ003>005-009-010-017-018-110400-
NORTH CENTRAL WISCONSIN

CITY           SKY/WX    TMP DP  RH WIND       PRES   REMARKS
WOODRUFF       PTCLDY    65  58  77 SE3       30.09R
RHINELANDER    PTCLDY    65  58  78 SE5       30.11R
EAGLE RIVER    PTCLDY    64  55  72 S5        30.10R
LAND O LAKES   PTCLDY    61  56  82 CALM      30.10S
PHILLIPS       MOCLDY    69  62  78 S6        30.07R
TOMAHAWK       PTCLDY    62  58  87 CALM      30.10R
MEDFORD        CLOUDY    67  64  87 SE6       30.09R
MERRILL        MOCLDY    68  61  78 CALM      30.10R
$$

WIZ029-030-035-036-043>047-110400-
CENTRAL WISCONSIN

CITY           SKY/WX    TMP DP  RH WIND       PRES   REMARKS
WAUSAU         MOCLDY    70  61  73 S8        30.08R
MOSINEE        MOCLDY    68  63  83 SE6       30.11R
MARSHFIELD     MOCLDY    68  64  87 S6        30.09R
STEVENS POINT  PTCLDY    67  59  74 SE6       30.11R
WAUPACA        PTCLDY    71  60  68 SE7       30.12R
WAUTOMA        MOCLDY    70  63  78 SE5       30.12R
WISC RAPIDS    MOCLDY    70  62  76 S6        30.11R
CAMP DOUGLAS   MOCLDY    68  65  89 SE2       30.10R
$$

WIZ011>013-019>022-031-037>040-048>050-110400-
NORTHEAST WISCONSIN

CITY           SKY/WX    TMP DP  RH WIND       PRES   REMARKS
ANTIGO         PTCLDY    62  58  86 SE7       30.12R
STURGEON BAY   CLEAR     61  48  63 S9        30.16R
GREEN BAY      PTCLDY    65  52  62 S10       30.14R
MANITOWOC      CLEAR     62  52  69 S7        30.16R
APPLETON       MOCLDY    66  54  63 SE10G18   30.14R
CLINTONVILLE   PTCLDY    66  57  72 SE7       30.11S
OSHKOSH        PTCLDY    65  55  70 S8        30.13R
$$

WIZ032>034-041-042-053>061-110400-
SOUTHWEST WISCONSIN

CITY           SKY/WX    TMP DP  RH WIND       PRES   REMARKS
LA CROSSE      MOCLDY    76  63  64 S7        30.06R
SPARTA         CLOUDY    71  60  69 S5        30.09R
VIROQUA        FAIR      70  62  73 S7        30.11R
BOSCOBEL       CLOUDY    73  61  65 CALM      30.10R
PRAIRIE DU CHI CLOUDY    71  60  69 CALM      30.09S
PLATTEVILLE    FAIR      68  63  83 SE6       30.14R
$$

WIZ056-057-062-063-064-067-068-110400-
SOUTH CENTRAL WISCONSIN

CITY           SKY/WX    TMP DP  RH WIND       PRES   REMARKS
BARABOO/DELLS  PTCLDY    67  60  77 CALM      30.12R
LONE ROCK      MOCLDY    72  64  76 E5        30.11R
WATERTOWN      PTCLDY    65  56  71 SE8       30.14S
MADISON        MOCLDY    73  60  63 S8        30.13R
MIDDLETON      FAIR      72  58  62 S5        30.13S
MONROE         PTCLDY    68  61  77 S7        30.14S
JANESVILLE     CLEAR     66  57  72 SE7       30.15R
$$

WIZ051-052-058>065-066-070>072-110400-
SOUTHEAST WISCONSIN

CITY           SKY/WX    TMP DP  RH WIND       PRES   REMARKS
MILWAUKEE      CLEAR     64  51  62 S6        30.18R
WAUKESHA       PTCLDY    61  50  67 SE5       30.18R
MILWAUKEE/TIMM MOCLDY    64  46  52 CALM      30.18R
RACINE         CLEAR     63  55  75 S5        30.19R
BURLINGTON     CLEAR     60  53  77 CALM      30.17S
KENOSHA        CLEAR     63  54  72 S5        30.18R
FOND DU LAC    PTCLDY    64  53  67 SE13      30.15R
SHEBOYGAN      MOCLDY    61  54  77 S6        30.17R
WEST BEND      CLEAR     61  48  63 CALM      30.17R
JUNEAU         CLEAR     66  42  42 SE9       30.16R
$$

LSZ147-162-110400-
LAKE SUPERIOR

STATION/POSITION TIME  TEMP    WIND        PRES    WAVE
                       AIR SEA DIR/SP/G            HT/PER
                 (UTC) (F)     (DEG/KT/KT) (MB)    (FT/S)
W MID LAKE BUOY  0250   49 39  120/ 10/ 12 1016.2R   0
PORT WING        0240   53      20/  5/  6 1015.9R
SAXON HARBOR     0240           CALM  /  6 1016.3R
$$

LMZ867-665-643>646-110400-
LAKE MICHIGAN

STATION/POSITION TIME  TEMP    WIND        PRES    WAVE
                       AIR SEA DIR/SP/G            HT/PER
                 (UTC) (F)     (DEG/KT/KT) (MB)    (FT/S)
N MID LAKE BUOY  0250   58 56  190/  4/  6 1021.0R   0
NORTHPORT PIER   0200   62     160/  5/  8 1020.3R
SISTER BAY       0155   61     160/  9/ 11   N/A
ALGOMA LAKESHORE 0220          230/ 11/ 12   N/A
KEWAUNEE LAKESHO 0300   58     190/  5/  7 1021.8R
SHEBOYGAN LAKESH 0300   63     200/  7/  8 1021.8R
PORT WASHINGTON  0200   60     190/  4/  6 1021.7R
ATWATER BUOY     0130   59     160/  6     1021.8
MILWAUKEE LAKESH 0300   65     190/  7/  8   N/A
S MID LAKE BUOY  0250   62 60   CALM  /  2 1022.0R   0
KENOSHA   LAKESH 0300   65     200/  5/  6   N/A
$$

TC  - TEMPERATURE IN CELSIUS
VSB - VISIBILITY IN STATUTE MILES
WCI - WIND CHILL INDEX
HX  - HEAT INDEX




USA.gov is the U.S. government's official web portal to all federal, state and local government web resources and services.